Date String (YYYY-MM-DD hh:mm:ss) UTC,Instrument flags,Ambient pressure (hPa),Sample flow (lpm),Bypass flow (lpm),Sample temperature (°C),Ambient temperature (°C),ASC tube jacket temperature (°C),LED temperature (°C),Box temperature (°C),Sample RH (%),Span deviation,Mass concentration (μg/m³),Mass concentration (μg/m³),Mass concentration (μg/m³)
DateTimeUTC,F1_M11,P_M11,Q1_M11,Q2_M11,T1_M11,T2_M11,T3_M11,T4_M11,T5_M11,U1_M11,ZSPAN_M11,X0_M11,X2_M11,X1_M11
2022-10-07 04:00:00,,0835.4,5.00,0.00,29.8,28.6,00.0,38.6,31.7,15.3,0000.0,0009.07,0004.32,0003.79
2022-10-07 04:01:00,,0835.4,5.01,0.00,29.9,28.6,00.0,38.6,31.7,15.8,0000.0,0009.20,0004.36,0003.81
2022-10-07 04:02:00,,0835.4,5.00,0.00,29.9,28.6,00.0,38.6,31.7,15.7,0000.0,0009.24,0004.38,0003.83
2022-10-07 04:03:00,,0835.4,5.01,0.00,29.9,28.6,00.0,38.6,31.7,15.9,0000.0,0009.21,0004.39,0003.85
2022-10-07 04:04:00,,0835.4,5.00,0.00,29.9,28.7,00.0,38.6,31.7,16.0,0000.0,0009.15,0004.40,0003.87
2022-10-07 04:05:00,,0835.4,5.01,0.00,29.9,28.7,00.0,38.6,31.8,15.9,0000.0,0008.73,0004.41,0003.90
2022-10-07 04:06:00,,0835.4,4.99,0.00,29.9,28.7,00.0,38.6,31.8,16.1,0000.0,0008.48,0004.41,0003.92
2022-10-07 04:07:00,,0835.4,5.01,0.00,30.0,28.7,00.0,38.6,31.9,16.0,0000.0,0008.39,0004.40,0003.94
2022-10-07 04:08:00,,0835.4,5.00,0.00,30.0,28.7,00.0,38.7,31.8,16.1,0000.0,0008.35,0004.43,0003.96
2022-10-07 04:09:00,,0835.5,5.00,0.00,30.0,28.8,00.0,38.7,31.9,16.1,0000.0,0008.62,0004.45,0003.98
2022-10-07 04:10:00,,0835.5,5.00,0.00,30.0,28.8,00.0,38.7,31.9,16.4,0000.0,0008.88,0004.52,0004.03
2022-10-07 04:11:00,,0835.5,4.99,0.00,30.0,28.8,00.0,38.7,31.9,16.8,0000.0,0009.24,0004.59,0004.09
2022-10-07 04:12:00,,0835.5,5.01,0.00,30.0,28.8,00.0,38.7,31.9,17.0,0000.0,0009.65,0004.73,0004.21
2022-10-07 04:13:00,,0835.5,4.99,0.00,30.0,28.8,00.0,38.7,31.9,17.2,0000.0,0010.18,0004.95,0004.36
2022-10-07 04:14:00,,0835.5,5.01,0.00,30.1,28.8,00.0,38.7,31.9,17.2,0000.0,0010.50,0005.14,0004.50
2022-10-07 04:15:00,,0835.6,4.99,0.00,30.1,28.8,00.0,38.8,32.0,17.3,0000.0,0011.04,0005.34,0004.67
2022-10-07 04:16:00,,0835.6,5.00,0.00,30.1,28.8,00.0,38.8,32.0,17.4,0000.0,0011.59,0005.57,0004.82
2022-10-07 04:17:00,,0835.6,5.00,0.00,30.1,28.8,00.0,38.8,32.0,17.4,0000.0,0012.67,0005.80,0004.96
2022-10-07 04:18:00,,0835.6,4.99,0.00,30.1,28.9,00.0,38.8,32.0,17.5,0000.0,0013.98,0006.06,0005.15
2022-10-07 04:19:00,,0835.6,5.00,0.00,30.1,28.9,00.0,38.8,32.0,17.6,0000.0,0014.59,0006.27,0005.34
2022-10-07 04:20:00,,0835.6,4.99,0.00,30.1,28.9,00.0,38.8,32.0,17.6,0000.0,0015.42,0006.54,0005.56
2022-10-07 04:21:00,,0835.6,5.00,0.00,30.1,28.9,00.0,38.8,32.0,17.7,0000.0,0016.68,0006.79,0005.77
2022-10-07 04:22:00,,0835.6,5.00,0.00,30.1,28.9,00.0,38.9,32.0,18.0,-000.0,0016.57,0007.03,0006.01
2022-10-07 04:23:00,,0835.6,5.01,0.00,30.2,28.9,00.0,38.9,32.0,18.5,-000.5,0018.00,0007.32,0006.26
2022-10-07 04:24:00,,0835.6,4.98,0.00,30.2,28.9,00.0,38.9,32.0,19.0,-001.2,0019.41,0007.70,0006.60
2022-10-07 04:25:00,,0835.6,5.01,0.00,30.2,28.9,00.0,38.9,32.0,19.3,-001.6,0020.13,0008.13,0006.98
2022-10-07 04:26:00,,0835.7,5.01,0.00,30.2,28.9,00.0,38.9,32.0,19.5,-001.6,0021.30,0008.62,0007.41
2022-10-07 04:27:00,,0835.7,4.99,0.00,30.2,28.9,00.0,38.9,32.0,19.6,-000.8,0022.25,0009.14,0007.85
2022-10-07 04:28:00,,0835.8,5.01,0.00,30.2,28.9,00.0,38.9,32.0,19.7,-000.5,0022.11,0009.66,0008.28
2022-10-07 04:29:00,,0835.8,4.99,0.00,30.2,28.9,00.0,38.9,32.0,19.8,-000.5,0022.85,0010.19,0008.72
2022-10-07 04:30:00,,0835.8,5.00,0.00,30.2,28.9,00.0,38.9,32.0,19.9,-000.6,0023.88,0010.72,0009.13
2022-10-07 04:31:00,,0835.9,4.99,0.00,30.2,28.9,00.0,38.9,32.1,20.0,-000.8,0024.56,0011.23,0009.54
2022-10-07 04:32:00,,0835.9,5.01,0.00,30.2,28.9,00.0,38.9,32.1,20.1,-000.6,0024.54,0011.77,0009.96
2022-10-07 04:33:00,,0835.9,5.00,0.00,30.2,28.9,00.0,39.0,32.1,20.2,-000.1,0026.61,0012.29,0010.35
2022-10-07 04:34:00,,0835.9,4.99,0.00,30.2,28.9,00.0,39.0,32.1,20.3,0000.3,0027.20,0012.70,0010.68
2022-10-07 04:35:00,,0835.9,5.00,0.00,30.2,28.9,00.0,39.0,32.1,20.4,0000.6,0026.38,0012.92,0010.87
2022-10-07 04:36:00,,0836.0,5.01,0.00,30.2,28.9,00.0,39.0,32.1,20.5,0001.0,0026.74,0013.17,0011.03
2022-10-07 04:37:00,,0836.0,5.00,0.00,30.2,28.9,00.0,39.0,32.1,20.5,0001.0,0026.59,0013.44,0011.18
2022-10-07 04:38:00,,0836.0,4.99,0.00,30.2,28.9,00.0,39.0,32.1,20.6,0000.8,0027.73,0013.63,0011.30
2022-10-07 04:39:00,,0836.0,5.02,0.00,30.2,28.9,00.0,39.0,32.1,20.6,0001.1,0028.26,0013.81,0011.45
2022-10-07 04:40:00,,0836.0,4.99,0.00,30.2,28.9,00.0,39.0,32.1,20.7,0001.1,0027.51,0013.92,0011.58
2022-10-07 04:41:00,,0836.1,5.01,0.00,30.2,28.9,00.0,39.0,32.1,20.7,0001.2,0027.80,0014.11,0011.75
2022-10-07 04:42:00,,0836.2,5.01,0.00,30.3,28.9,00.0,39.0,32.1,20.8,0001.2,0029.80,0014.28,0011.91
2022-10-07 04:43:00,,0836.2,4.98,0.00,30.3,28.9,00.0,39.0,32.1,20.8,0001.0,0032.36,0014.46,0012.04
2022-10-07 04:44:00,,0836.2,5.00,0.00,30.3,28.9,00.0,39.0,32.1,20.8,0000.6,0031.70,0014.59,0012.18
2022-10-07 04:45:00,,0836.2,5.01,0.00,30.3,28.9,00.0,39.0,32.1,20.8,0000.5,0031.59,0014.65,0012.29
2022-10-07 04:46:00,,0836.2,4.98,0.00,30.3,28.9,00.0,39.0,32.1,20.8,0000.4,0031.97,0014.76,0012.40
2022-10-07 04:47:00,,0836.2,5.00,0.00,30.3,28.8,00.0,39.0,32.1,20.7,0000.5,0032.20,0014.86,0012.49
2022-10-07 04:48:00,,0836.2,5.00,0.00,30.3,28.9,00.0,39.0,32.1,20.7,0000.6,0032.23,0014.91,0012.55
2022-10-07 04:49:00,,0836.2,5.00,0.00,30.3,28.8,00.0,39.0,32.1,20.7,0000.7,0031.12,0014.89,0012.56
2022-10-07 04:50:00,,0836.2,4.99,0.00,30.3,28.8,00.0,39.0,32.1,20.7,0000.5,0031.67,0014.80,0012.56
2022-10-07 04:51:00,,0836.2,5.00,0.00,30.3,28.8,00.0,39.0,32.1,20.7,0000.9,0031.86,0014.84,0012.54
2022-10-07 04:52:00,,0836.2,5.01,0.00,30.3,28.8,00.0,39.0,32.1,20.8,0001.1,0032.01,0014.88,0012.51
2022-10-07 04:53:00,,0836.2,5.00,0.00,30.3,28.8,00.0,39.0,32.1,20.8,0001.5,0030.75,0014.86,0012.44
2022-10-07 04:54:00,,0836.2,4.99,0.00,30.3,28.8,00.0,39.0,32.1,20.8,0001.5,0029.23,0014.71,0012.35
2022-10-07 04:55:00,,0836.3,5.00,0.00,30.3,28.9,00.0,39.1,32.1,20.8,0001.3,0029.56,0014.63,0012.25
2022-10-07 04:56:00,,0836.3,5.01,0.00,30.3,28.9,00.0,39.0,32.1,20.8,0001.2,0029.46,0014.58,0012.15
2022-10-07 04:57:00,,0836.3,5.00,0.00,30.3,28.9,00.0,39.0,32.1,20.9,0001.3,0029.76,0014.53,0012.09
2022-10-07 04:58:00,,0836.4,4.99,0.00,30.3,28.9,00.0,39.0,32.1,21.0,0001.5,0030.63,0014.51,0012.08
2022-10-07 04:59:00,,0836.4,5.00,0.00,30.3,28.9,00.0,39.0,32.1,21.1,0001.5,0031.22,0014.53,0012.12
